www.pogodaiklimat.ru
Время
и дата
02:51 27.11
03:51 27.11
04:51 27.11
05:51 27.11
06:51 27.11
07:51 27.11
08:51 27.11
09:51 27.11
10:51 27.11
11:51 27.11
12:21 27.11
12:51 27.11
13:51 27.11
14:51 27.11
15:51 27.11
16:51 27.11
17:15 27.11
17:51 27.11
18:51 27.11
19:51 27.11
20:51 27.11
21:51 27.11
22:47 27.11
22:51 27.11
23:51 27.11
00:51 28.11
01:51 28.11
02:51 28.11
03:51 28.11
04:33 28.11
04:45 28.11
04:51 28.11
05:09 28.11
05:51 28.11
06:37 28.11
06:51 28.11
07:21 28.11
07:27 28.11
07:51 28.11
08:51 28.11
09:10 28.11
09:51 28.11
10:06 28.11
10:32 28.11
10:51 28.11
11:27 28.11
11:51 28.11
12:51 28.11
Ветер
(напр.,м/с)
Видим. Явления Облачность Т
(С)
Тd
(С)
f
(%)
Тe
(С)
Тes
(С)
Комфортность P
(гПа)
Po
(гПа)
Тmin
(С)
Tmax
(С)
R
(мм)
R24
(мм)
S
(см)
С 1 16 км 10/0 2100 м
[Ac]
+12.2 +5.6 64 +11 +11 1021.4 1019.6
С 1 16 км 10/0 2100 м
[Ac]
+11.7 +6.7 71 +10 +10 1020.9 1019.3
С 1 16 км 10/8 1950 м
[Ac]
+11.7 +6.7 71 +10 +10 1021.2 1019.6
С 2 16 км слабый дождь 10/5 1950 м
[Ac]
+11.1 +7.8 80 +9 +9 1021.6 1020.0 +11.1 +12.2 0.3 0.3
СВ 1 16 км слабый дождь 10/2 1800 м
[Ac]
+11.1 +7.8 80 +10 +10 1021.5 1020.0
СВ 2 16 км слабый дождь 10/2 1800 м
[Ac]
+10.6 +7.8 83 +8 +8 1020.8 1019.3
С 2 16 км слабый дождь 10/0 2100 м
[Ac]
+11.1 +6.7 74 +8 +9 1021.4 1019.6 0.3
С 2 16 км слабый дождь 10/8 1170 м
[Ac]
+10.6 +7.8 83 +8 +8 1022.0 1020.3
С 2 16 км слабый дождь 10/2 1230 м
[Ac]
+10.6 +7.8 83 +8 +9 1021.5 1020.0
С 2 16 км слабый дождь 10/2 750 м
[Ac]
+11.7 +8.3 80 +10 +12 1020.5 1019.0 +10.6 +11.7 0.3
С 2 16 км 10/8 750 м
[Ac]
+11.1 +8.3 83 +9 +9 1018.6
С 2 16 км 10/10 330 м +11.1 +8.3 83 +9 +9 1019.8 1018.3
С 2 16 км 10/10 240 м +11.1 +8.9 86 +8 +8 1018.8 1017.3
СЗ 2 16 км 10/10 330 м +11.1 +9.4 89 +8 +8 1018.7 1017.3
С 3 16 км слабый дождь 10/10 330 м +11.1 +9.4 89 +8 +8 1018.6 1016.9
С 3 16 км 10/10 330 м +11.1 +10.0 93 +8 +8 1017.9 1016.3
С 2 16 км 10/10 270 м +11.1 +10.0 93 +8 +8 1016.6
С 2 16 км 10/10 270 м +11.1 +10.0 93 +8 +8 1018.6 1016.9 +11.1 +11.7
С 3 16 км слабый дождь 10/10 240 м +11.1 +9.4 89 +8 +8 1019.6 1018.0
С 3 16 км 10/10 240 м +11.1 +10.0 93 +8 +8 1019.8 1018.3
С 3 16 км 10/10 240 м +11.1 +10.0 93 +8 +8 1020.5 1019.0
С 3 16 км слабый дождь 10/10 240 м +11.1 +10.6 97 +8 +8 1020.4 1018.6
С 3 16 км 10/10 240 м +12.0 +11.0 94 +9 +9 1018.6
С 3 16 км 10/10 240 м +11.7 +11.1 96 +9 +9 1020.2 1018.6
С 3 16 км 10/10 210 м +12.2 +11.1 93 +9 +9 1019.6 1018.0 +11.1 +12.2
С 2 16 км 10/10 60 м +12.2 +11.7 97 +10 +10 1019.1 1017.6
С 2 16 км 10/10 210 м +12.8 +12.2 96 +10 +10 1019.1 1017.6
С 1 16 км 10/10 210 м +12.8 +12.2 96 +11 +11 1019.2 1017.6
С 1 16 км 10/10 450 м +12.8 +12.2 96 +11 +11 1019.3 1017.6
С 1 16 км 10/10 420 м +13.3 +12.2 93 +12 +12 1018.0
С 2 16 км 10/10 90 м +13.0 +12.0 94 +11 +11 1018.0
СЗ 2 16 км 10/10 90 м +13.3 +12.2 93 +12 +12 1019.7 1018.0
С 2 10 км слабая морось, дымка 10/10 240 м +12.8 +12.2 96 +10 +10 1018.3
СЗ 2 6 км слабая морось, дымка 10/10 180 м +12.8 +12.2 96 +10 +10 1020.4 1018.6 +12.2 +13.3 0.3
СЗ 2 10 км дымка 10/10 240 м +12.8 +12.8 100 +11 +11 1019.3
СЗ 2 10 км дымка 10/10 270 м +12.8 +12.2 96 +11 +11 1021.3 1019.6
СЗ 2 10 км дымка 10/10 330 м +12.8 +12.2 96 +10 +10 1020.0
С 2 8 км дымка 10/10 270 м +12.8 +12.2 96 +10 +10 1020.3
СЗ 3 10 км дымка 10/10 150 м +12.8 +12.2 96 +10 +10 1022.3 1020.7
СЗ 2 13 км 10/10 270 м +12.2 +11.1 93 +10 +10 1022.9 1021.3
СЗ 2 14 км 10/10 300 м +12.2 +11.1 93 +10 +10 1021.7
СЗ 3 16 км 10/10 300 м +12.2 +10.6 90 +9 +9 1023.5 1022.0
СЗ 2 16 км 10/10 270 м +12.8 +10.6 86 +11 +11 1022.0
СЗ 3 16 км 10/10 300 м +13.3 +10.6 84 +11 +11 1022.0
С 3 16 км 10/10 300 м +13.9 +11.1 83 +12 +12 1023.5 1022.0
С 2 16 км 10/8 300 м
[Ac Ci]
+15.6 +11.7 78 +14 +15 1021.3
С 3 16 км 10/8 360 м
[Ac Ci]
+15.0 +11.1 77 +13 +14 1022.8 1021.0 +12.2 +15.6
С 2 16 км 8/8 390 м
[Ci]
+16.1 +11.7 75 +15 +16 1021.8 1020.3
Местоположение метеостанции Corpus Christi International Airport: широта 27.7731 долгота -97.5128 высота над уровнем моря 13 м.
В архиве по умолчанию представлена погода в Корпус Кристи за последние 1-2 суток. Обновление информации о фактической погоде в базе происходит ежечасно! Архивные данные за месяц целиком и за предыдущие месяцы Вы можете получить, выбрав интересующий диапазон дат из раскрывающегося списка и нажав кнопку "Ввод!".
Внимание! Архив погоды МЕТАР в базе сайта по станциям, не включенным в климатический монитор, хранится не более 60 дней. Нет смысла пытаться выбрать более раннюю дату.
*Определитесь, кто Вы:
Внимание! Время в таблицах - местное (без учета летнего времени). Для получения всемирного времени необходимо вычесть поправку, которая равна -6 ч.
Смотрите также архив погоды в соседних городах и на ближайших метеорологических станциях:
Партнеры нашего сайта:      
Пояснения к столбцам:
  • Ветер - указаны скорость ветра в м/с - средняя за 10 мин, порывы в срок и между сроками (в фигурных скобках) и направление, откуда дует ветер: С - северный,
  • СВ - северо-восточный, В - восточный, ЮВ - юго-восточный, Ю - южный, ЮЗ - юго-западный, З - западный, СЗ - северо-западный.
  • Видимость - горизонтальная дальность видимости в метрах или километрах. При видимости от 1 до 10 км при отсутствии осадков обычно наблюдается дымка, при ухудшении видимости до 1 км и менее - туман. В сухую погоду видимость может ухудшаться дымом, пылью или мглою.
  • Явления - указаны атмосферные явления, наблюдавшиеся в срок или в последний час перед сроком; фигурными скобками обозначены явления, наблюдавшиеся между сроками (за 1-3 часа до срока); квадратными скобками обозначены град или гололедные отложения с указанием их диаметра в мм.
  • Облачность - указаны через наклонную черту общая и нижняя облачность в баллах и высота нижней границы облаков в метрах; квадратными скобками обозначены формы облаков: Ci - перистые, Cs - перисто-слоистые, Cc - перисто-кучевые, Ac - высококучевые, As - высокослоистые, Sc - слоисто-кучевые, Ns - слоисто-дождевые, Cu - кучевые, Cb - кучево-дождевые. Подробнее классификацию облаков см. в Атласе облаков (PDF).
  • T - Температура воздуха - температура, измеренная на высоте 2 м над землей.
  • Td - Температура точки росы - температура, при понижении до которой содержащийся в воздухе водяной пар достигнет насыщения.
  • f - Относительная влажность воздуха - влажноcть воздуха, измеренная на высоте 2 м над землей.
  • Te - Эффективная температура - температура, которую ощущает одетый по сезону человек в тени. Характеристика душности погоды. При расчете учитывается влияние влажности воздуха и скорости ветра на теплоощущения человека.
  • Tes - Эффективная температура на солнце - температура, которую ощущает человек, с поправкой на солнечный нагрев. Характеристика знойности погоды. Зависит от высоты солнца над горизонтом, облачности и скорости ветра. Ночью, в пасмурную погоду, а также при ветре 12 м/с и более поправка равна нулю.
  • P - Атмосферное давление - приведенное к уровню моря атмосферное давление.
  • Po - Атмосферное давление - измеренное на уровне метеостанции атмосферное давление.
  • Tmin - Минимальная температура - минимум температуры воздуха на высоте 2 м над землей.
  • Tmax - Максимальная температура - максимум температуры воздуха на высоте 2 м над землей.
  • R - Количество осадков - Количество выпавших осадков за период времени, мм. При наведении курсора мыши на число - период времени, за который выпало указанное количество осадков.
  • R24 - Количество осадков - Количество выпавших осадков за 24 часа, мм.
  • S - Снежный покров - Высота снежного покрова, см. При наведении курсора мыши на число - состояние снежного покрова и степень покрытия местности в баллах.